Location: Normandy Village
(37.8755°N, 122.2655°W)
Time: 22:51:00
(UTC+00:00)

IDEFIX/ARIANE 42P - Pass Details

Date: 22 September 2019
Orbit: 786 x 802 km, 98.3° (Epoch: 21 October)

Event Time Altitude Azimuth Distance (km) Brightness Sun altitude
Rises 12:24:08 0° 6° (N) 3,320 6.1 -18.9°
Reaches altitude 10° 12:26:32 10° 1° (N) 2,386 5.2 -18.4°
Maximum altitude 12:31:36 49° 288° (WNW) 1,024 2.8 -17.4°
Enters shadow 12:34:47 22° 223° (SW) 1,694 3.8 -16.8°
